User: anonymous   Login
Location: Oshawa
(43.9000°N, 78.8670°W)
Time: 01:00:29
(UTC-05:00)
Language:

Cosmos 1821 Rocket - Orbit

View from above orbital plane
View from above orbital plane
View from above satellite
View from above satellite

Ground track
Ground track

The orbit data is extracted from the following two-line orbital elements,

1 17526U 87017B   16038.19835525 -.00000068  00000-0 -83566-4 0  9998
2 17526  82.8998  50.8488 0038961 263.6916 142.7936 13.76780088438106
Epoch (UTC): 07 February 2016 04:45:37
Eccentricity: 0.0038961
inclination: 82.8998°
perigee height: 946 km
apogee height: 1004 km
right ascension of ascending node: 50.8488°
argument of perigee: 263.6916°
revolutions per day: 13.76780088
mean anomaly at epoch: 142.7936°
orbit number at epoch: 43810

The dashed part of the orbit path shows where the satellite is in the earth's shadow,  

DLR